Location: Geyikbay?r?
(36.8756°N, 30.4583°E)
Time: 12:38:15
(UTC+00:00)

Cosmos 1634 Rocket - Pass Details

Date: 05 August 2024
Orbit: 960 x 991 km, 82.9° (Epoch: 11 September)

Event Time Altitude Azimuth Distance (km) Brightness Sun altitude
Exits shadow 23:26:28 58° 346° (NNW) 1,109 4.3 -33.1°
Drops below altitude 10° 23:31:26 10° 4° (N) 2,707 7.1 -32.7°
Sets 23:33:57 0° 6° (N) 3,661 8.0 -32.5°
